Погода Жосалы

Погода Жосалы : погода сейчас, прогноз погоды и архив. Всё, что Вы хотите узнать о погоде Жосалы!

Хотите узнать прогноз погоды Жосалы? Тогда Вам сюда: Погода Жосалы

Поиск расширенной информации на нашем сайте:

Другие новости

Новости СМИ2

Главная страница сайта

Новости сайта

03.07.2017

Напоминаем, что на нашем специализированном сайте Метеоцентр.Азия вы можете получить высокодетализированные автоматические прогнозы погоды по пунктам России, СНГ и мира в авиационном формате (включающие направление и скорость ветра, видимость, явления погоды, количество и форму облачности, нижнюю и верхнюю границу облачности).


Погода Жосалы - сегодня

Время (UTC), дата Ветер
(°,м/с) 
Видим.   Явления Облачность Т
(°С)
Тd
(°С)
f(%) Тe
(°С)
Pmin
(гПа)
dP
(гПа)
Po
(мм)
O2
(г/м3)
Тmin Tmax R s Состояние
почвы
15 16.04.18 260 (З) н/о    9/9 600 м 
[Sc]
+13.5 -5.4 26 +14  1021.2  0.1  757  291    +15.8       
18 16.04.18 140 (ЮВ) н/о    9/9 600 м 
[Sc]
+12.4 -4.4 31 +12  1021.7  0.5  757  292    +15.8       
21 16.04.18 290 (З) н/о    10/10 600 м 
[Sc]
+11.8 -3.6 34 +12  1021.6  -0.1  757  293           
00 17.04.18 100 (В) н/о    10/10 600 м 
[Sc]
+10.4 -2.5 40 +11  1020.9  -0.7  756  294           
03 17.04.18 160 (Ю) 20000 м    9/4 600 м средняя, верхняя 
[Sc|Ac trans|Ci sp]
+9.7 +0.6 53 +8  1021.3  0.4  757  294           
06 17.04.18 200 (Ю) 20000 м    8/4 600 м верхняя 
[Sc diur, vesp|Ci sp]
+13.3 -0.2 39 +12  1021.6  0.3  757  291  +8.7         
09 17.04.18 230 (ЮЗ) 20000 м    9/9 600 м кучево-дожд. 
[Cb calv]
+14.9 -2.2 31 +14  1019.9  -1.6  756  289           
12 17.04.18 230 (ЮЗ) 20000 м  {ливн. осадки}  8/6 600 м кучево-дожд., средняя 
[Cb calv|Ac cuf]
+14.7 -3.6 28 +14  1019.6  -0.2  755  289           
15 17.04.18 220 (ЮЗ) н/о    6/3 1000 м средняя 
[Cu med, cong|Ac cuf]
+12.8 -3.8 31 +11  1020.6  0.8  756  291    +16.6  0.0     
18 17.04.18 210 (ЮЗ) н/о    4/3 600 м средняя 
[Sc|Ac trans]
+9.3 -0.9 49 +9  1021.9  1.2  757  295    +16.6  0.0     
21 17.04.18 210 (ЮЗ) н/о    ясно 
+7.5 -1.4 53 +7  1022.6  0.7  758  297           
00 18.04.18 240 (ЮЗ) н/о    ясно 
+6.1 -1.8 57 +5  1023.3  0.6  758  299           
03 18.04.18 220 (ЮЗ) 20000 м    6/0 средняя, верхняя 
[Ac trans|Ci sp]
+6.7 +0.3 64 +6  1024.3  759  298           
06 18.04.18 230 (ЮЗ) 20000 м    8/4 600 м средняя 
[Sc diur, vesp|Ac cast]
+16 -0.5 32 +16  1024.5  0.6  759  289  +4.4         
09 18.04.18 260 (З) 20000 м    8/8 600 м 
[Sc diur, vesp]
+19.9 -4.1 19 +20  1023.5  -0.8  759  285           
12 18.04.18 270 (З) 20000 м    9/9 600 м кучево-дожд. 
[Cb calv]
+18.6 -5.4 19 +18  1022.9  -0.7  758  287           
15 18.04.18 250 (З) н/о    8/5 600 м верхняя 
[Sc diur, vesp|Ci sp]
+16 -4.7 24 +15  1023.6  0.6  758  289    +20.5       
18 18.04.18 220 (ЮЗ) н/о    ясно 
+11.9 -2.2 37 +11  1024.3  0.5  759  293    +20.5       
21 18.04.18 220 (ЮЗ) н/о    ясно 
+8.6 -3 44 +9  1023.2  -1.2  758  296           
00 19.04.18 240 (ЮЗ) н/о    4/0 средняя 
[Ac trans]
+6.4 -3.1 51 +6  1022.7  -0.6  758  299           
03 19.04.18 230 (ЮЗ) 20000 м  {ливн. осадки}  8/8 600 м кучево-дожд. 
[Cb calv]
+8.8 +1.9 62 +8  1022.5  -0.1  757  295           
06 19.04.18 220 (ЮЗ) 20000 м  {ливн. осадки}  6/0 средняя, верхняя 
[Ac cast|Ci sp]
+17 +1.9 36 +16  1022.2  757  287  +0.6    0.0     
09 19.04.18 190 (Ю) 12-15{15}  20000 м  {ливн. осадки}  8/8 600 м кучево-дожд. 
[Cb calv]
+18.9 -3.3 22 +18  1021.1  -1  757  286           
12 19.04.18 250 (З) 5{25}  20000 м  {ливн. осадки}  8/8 600 м кучево-дожд. 
[Cb calv]
+19.1 -2.7 23 +19  1020.6  -0.5  756  285           
15 19.04.18 240 (ЮЗ) н/о    8/8 600 м 
[Sc diur, vesp]
+15.4 -0.9 33 +16  1020.6  -0.2  756  289    +20.3       
Время (UTC), дата Ветер
(°,м/с) 
Видим.   Явления Облачность Т
(°С)
Тd
(°С)
f(%) Тe
(°С)
Pmin
(гПа)
dP
(гПа)
Po
(мм)
O2
(г/м3)
Тmin Tmax R s Состояние
почвы

Для получения пояснительной информации подведите курсор к названию столбца.

ПОГОДА Жосалы - архив

Всё, что Вы хотите узнать о погоде Жосалы - удобно и подробно!

Выберите нужную дату (начиная с 1 января 2015* года) и нажмите кнопку "Найти".
Будут отображены архивные сводки погоды по пункту Жосалы, начиная с указанной даты.


Отображать данные в формате CSV (для использования в таблицах Excel)


Внимание! Наш архив погоды предназначен исключительно для личного некоммерческого использования в познавательных целях. Если Вам необходимы официальные справки о состоянии погоды (для производственных, юридических, коммерческих и т.п. целей), обращайтесь в органы Росгидромета.

*Примечание: данная дата относится к архиву по метеостанциям СССР (Россия, СНГ, Балтия).
Архив по метеостанциям Зарубежной Европы и Азии (кроме Китая) хранится 10 дней, по другим регионам земного шара (Китай, Африка, Америка, Австралия, Океания) - 1 день.

Жосалы - район местоположения метеостанции


Название, широта, долгота, высота метеостанции:
Жосалы (Джусалы) 45.5°ш. 64.1°д. 103 м над ур. моря [Казахстан]

Дополнительная информация

В oтличие oт бoльшинства пoгoдных сайтoв мы публикуем пoдрoбную метеoинфoрмацию в детальнoм прoфессиoнальнoм фoрмате.

Характеристики температуры и влажнoсти вoздуха измеряются на высoте 2 м в тени вдали oт зданий и деревьев.
Скoрoсть ветра измеряется на высoте 10 м (на урoвне рoста челoвека скoрoсть ветра ниже в 1.5-2 раза). Если метеoстанция нахoдится в гoрoде или в лесу, тo скoрoсть ветра занижена на 2-4 м/с пo сравнению с oткрытым местoм. Скoрoсть ветра над акватoриями крупных рек и oзёр, а также на вершинах хoлмoв на 2-5 м/с выше, чем в oбычных услoвиях.
Атмoсфернoе давление в разных тoчках местнoсти мoжет значительнo oтличаться oт давления на метеoстанции, в зависимoсти oт услoвий рельефа (при пoдъёме на 10 м давление пoнижается примернo на 1 мм рт.ст.).